Location: Newark
(46.7636°N, 1.8358°W)
Time: 04:12:47
(UTC+00:00)

Courier 1B Rocket - Visible Passes

Search period start: 20 October 2019 00:00
Search period end: 30 October 2019 00:00
Orbit: 920 x 1202 km, 28.2° (Epoch: 19 October)

Date Brightness Start Highest point End Pass type
(mag) Time Alt. Az. Time Alt. Az. Time Alt. Az.
20 Oct 7.0 05:04:33 10° SSW 05:07:31 14° S 05:10:30 10° SSE visible
21 Oct 6.9 04:05:58 12° S 04:06:55 13° S 04:09:28 10° SSE visible
21 Oct 7.0 05:56:24 10° SSW 05:59:00 13° S 06:01:39 10° SSE visible
22 Oct 6.9 04:55:33 10° SSW 04:58:24 13° S 05:01:16 10° SSE visible
23 Oct 6.9 03:58:01 13° S 03:58:01 13° S 04:00:39 10° SSE visible
23 Oct 7.1 05:48:30 10° SSW 05:49:53 11° SSW 05:51:16 10° S visible
24 Oct 6.9 04:47:13 10° SSW 04:49:17 12° S 04:51:40 10° SSE visible
25 Oct 7.0 03:50:04 12° S 03:50:04 12° S 03:51:30 10° SSE visible
26 Oct 7.0 04:39:17 10° SSW 04:40:10 10° SSW 04:41:12 10° S visible
